owner,sensor,date,latitude,longitude,vertical_datum,sea_water_temperature,qcFlag 
DISL,ioos:station:DISL:MHPA:1,2019-03-14T19:30:00Z,30.6671,-87.9365,-0.9,17.43,11111222 
DISL,ioos:station:DISL:MHPA:1,2019-03-14T20:30:00Z,30.6671,-87.9365,-0.9,17.51,11111222 
DISL,ioos:station:DISL:MHPA:1,2019-03-14T21:30:00Z,30.6671,-87.9365,-0.9,17.58,11111222 
DISL,ioos:station:DISL:MHPA:1,2019-03-14T22:30:00Z,30.6671,-87.9365,-0.9,17.63,11111222 
DISL,ioos:station:DISL:MHPA:1,2019-03-14T23:30:00Z,30.6671,-87.9365,-0.9,17.74,11111222 
DISL,ioos:station:DISL:MHPA:1,2019-03-15T00:30:00Z,30.6671,-87.9365,-0.9,17.76,11111222 
DISL,ioos:station:DISL:MHPA:1,2019-03-15T01:30:00Z,30.6671,-87.9365,-0.9,17.71,11111222 
DISL,ioos:station:DISL:MHPA:1,2019-03-15T02:30:00Z,30.6671,-87.9365,-0.9,17.69,11111222 
DISL,ioos:station:DISL:MHPA:1,2019-03-15T03:30:00Z,30.6671,-87.9365,-0.9,17.73,11111222 
DISL,ioos:station:DISL:MHPA:1,2019-03-15T04:30:00Z,30.6671,-87.9365,-0.9,17.87,11111222 
DISL,ioos:station:DISL:MHPA:1,2019-03-15T05:30:00Z,30.6671,-87.9365,-0.9,17.7,11111222 
DISL,ioos:station:DISL:MHPA:1,2019-03-15T06:30:00Z,30.6671,-87.9365,-0.9,17.65,11111222 
DISL,ioos:station:DISL:MHPA:1,2019-03-15T07:30:00Z,30.6671,-87.9365,-0.9,17.59,11111222 
DISL,ioos:station:DISL:MHPA:1,2019-03-15T08:30:00Z,30.6671,-87.9365,-0.9,17.42,11111222 
DISL,ioos:station:DISL:MHPA:1,2019-03-15T09:30:00Z,30.6671,-87.9365,-0.9,16.66,11111222 
DISL,ioos:station:DISL:MHPA:1,2019-03-15T10:30:00Z,30.6671,-87.9365,-0.9,16.98,11111222 
DISL,ioos:station:DISL:MHPA:1,2019-03-15T11:30:00Z,30.6671,-87.9365,-0.9,16.46,11111222 
DISL,ioos:station:DISL:MHPA:1,2019-03-15T12:30:00Z,30.6671,-87.9365,-0.9,16.45,11111222 
DISL,ioos:station:DISL:MHPA:1,2019-03-15T13:30:00Z,30.6671,-87.9365,-0.9,16.36,11111222 
DISL,ioos:station:DISL:MHPA:1,2019-03-15T14:30:00Z,30.6671,-87.9365,-0.9,16.4,11111222 
DISL,ioos:station:DISL:MHPA:1,2019-03-15T15:30:00Z,30.6671,-87.9365,-0.9,16.36,11111222 
DISL,ioos:station:DISL:MHPA:1,2019-03-15T17:00:00Z,30.6671,-87.9365,-0.9,16.32,11111222 
DISL,ioos:station:DISL:MHPA:1,2019-03-15T18:00:00Z,30.6671,-87.9365,-0.9,16.35,11111222 
DISL,ioos:station:DISL:MHPA:1,2019-03-15T19:00:00Z,30.6671,-87.9365,-0.9,16.27,11111222 
DISL,ioos:station:DISL:MHPA:1,2019-03-15T20:00:00Z,30.6671,-87.9365,-0.9,16.37,11111222 
DISL,ioos:station:DISL:MHPA:1,2019-03-15T21:00:00Z,30.6671,-87.9365,-0.9,16.38,11111222 
DISL,ioos:station:DISL:MHPA:1,2019-03-15T22:00:00Z,30.6671,-87.9365,-0.9,16.4,11111222 
DISL,ioos:station:DISL:MHPA:1,2019-03-15T23:00:00Z,30.6671,-87.9365,-0.9,16.35,11111222 
DISL,ioos:station:DISL:MHPA:1,2019-03-16T00:00:00Z,30.6671,-87.9365,-0.9,16.25,11111222 
DISL,ioos:station:DISL:MHPA:1,2019-03-16T01:00:00Z,30.6671,-87.9365,-0.9,16.19,11111222 
DISL,ioos:station:DISL:MHPA:1,2019-03-16T02:00:00Z,30.6671,-87.9365,-0.9,16.1,11111222 
DISL,ioos:station:DISL:MHPA:1,2019-03-16T03:00:00Z,30.6671,-87.9365,-0.9,15.93,11111222 
DISL,ioos:station:DISL:MHPA:1,2019-03-16T04:00:00Z,30.6671,-87.9365,-0.9,15.92,11111222 
DISL,ioos:station:DISL:MHPA:1,2019-03-16T05:00:00Z,30.6671,-87.9365,-0.9,15.89,11111222 
DISL,ioos:station:DISL:MHPA:1,2019-03-16T06:00:00Z,30.6671,-87.9365,-0.9,15.83,11111222 
DISL,ioos:station:DISL:MHPA:1,2019-03-16T07:00:00Z,30.6671,-87.9365,-0.9,15.8,11111222 
DISL,ioos:station:DISL:MHPA:1,2019-03-16T08:00:00Z,30.6671,-87.9365,-0.9,15.7,11111222 
DISL,ioos:station:DISL:MHPA:1,2019-03-16T09:00:00Z,30.6671,-87.9365,-0.9,15.61,11111222 
DISL,ioos:station:DISL:MHPA:1,2019-03-16T10:00:00Z,30.6671,-87.9365,-0.9,15.52,11111222 
DISL,ioos:station:DISL:MHPA:1,2019-03-16T11:00:00Z,30.6671,-87.9365,-0.9,15.38,11111222 
DISL,ioos:station:DISL:MHPA:1,2019-03-16T12:00:00Z,30.6671,-87.9365,-0.9,15.3,11111222 
DISL,ioos:station:DISL:MHPA:1,2019-03-16T13:00:00Z,30.6671,-87.9365,-0.9,15.23,11111222 
DISL,ioos:station:DISL:MHPA:1,2019-03-16T14:00:00Z,30.6671,-87.9365,-0.9,15.17,11111222 
DISL,ioos:station:DISL:MHPA:1,2019-03-16T15:00:00Z,30.6671,-87.9365,-0.9,15.14,11111222 
DISL,ioos:station:DISL:MHPA:1,2019-03-16T16:00:00Z,30.6671,-87.9365,-0.9,15.1,11111222 
DISL,ioos:station:DISL:MHPA:1,2019-03-16T17:00:00Z,30.6671,-87.9365,-0.9,15.06,11111222 
DISL,ioos:station:DISL:MHPA:1,2019-03-16T18:00:00Z,30.6671,-87.9365,-0.9,15.02,11111222 
DISL,ioos:station:DISL:MHPA:1,2019-03-16T19:00:00Z,30.6671,-87.9365,-0.9,14.99,11111222 
DISL,ioos:station:DISL:MHPA:1,2019-03-16T20:00:00Z,30.6671,-87.9365,-0.9,14.97,11111222 
DISL,ioos:station:DISL:MHPA:1,2019-03-16T21:00:00Z,30.6671,-87.9365,-0.9,15.01,11111222 
DISL,ioos:station:DISL:MHPA:1,2019-03-16T22:00:00Z,30.6671,-87.9365,-0.9,15.03,11111222 
DISL,ioos:station:DISL:MHPA:1,2019-03-16T23:00:00Z,30.6671,-87.9365,-0.9,15.04,11111222 
DISL,ioos:station:DISL:MHPA:1,2019-03-17T00:00:00Z,30.6671,-87.9365,-0.9,15.01,11111222 
DISL,ioos:station:DISL:MHPA:1,2019-03-17T01:00:00Z,30.6671,-87.9365,-0.9,15.02,11111222 
DISL,ioos:station:DISL:MHPA:1,2019-03-17T02:00:00Z,30.6671,-87.9365,-0.9,14.97,11111222 
DISL,ioos:station:DISL:MHPA:1,2019-03-17T03:00:00Z,30.6671,-87.9365,-0.9,14.93,11111222 
DISL,ioos:station:DISL:MHPA:1,2019-03-17T04:00:00Z,30.6671,-87.9365,-0.9,14.87,11111222 
DISL,ioos:station:DISL:MHPA:1,2019-03-17T05:00:00Z,30.6671,-87.9365,-0.9,14.8,11111222 
DISL,ioos:station:DISL:MHPA:1,2019-03-17T06:00:00Z,30.6671,-87.9365,-0.9,14.71,11111222 
DISL,ioos:station:DISL:MHPA:1,2019-03-17T07:00:00Z,30.6671,-87.9365,-0.9,14.62,11111222 
DISL,ioos:station:DISL:MHPA:1,2019-03-17T08:00:00Z,30.6671,-87.9365,-0.9,14.54,11111222 
DISL,ioos:station:DISL:MHPA:1,2019-03-17T09:00:00Z,30.6671,-87.9365,-0.9,14.44,11111222 
DISL,ioos:station:DISL:MHPA:1,2019-03-17T10:00:00Z,30.6671,-87.9365,-0.9,14.33,11111222 
DISL,ioos:station:DISL:MHPA:1,2019-03-17T11:00:00Z,30.6671,-87.9365,-0.9,14.24,11111222 
DISL,ioos:station:DISL:MHPA:1,2019-03-17T12:00:00Z,30.6671,-87.9365,-0.9,14.18,11111222 
DISL,ioos:station:DISL:MHPA:1,2019-03-17T13:00:00Z,30.6671,-87.9365,-0.9,14.1,11111222 
DISL,ioos:station:DISL:MHPA:1,2019-03-17T14:00:00Z,30.6671,-87.9365,-0.9,14.07,11111222 
DISL,ioos:station:DISL:MHPA:1,2019-03-17T15:00:00Z,30.6671,-87.9365,-0.9,14.11,11111222 
DISL,ioos:station:DISL:MHPA:1,2019-03-17T16:00:00Z,30.6671,-87.9365,-0.9,14.22,11111222 
DISL,ioos:station:DISL:MHPA:1,2019-03-17T17:00:00Z,30.6671,-87.9365,-0.9,14.37,11111222 
DISL,ioos:station:DISL:MHPA:1,2019-03-17T18:00:00Z,30.6671,-87.9365,-0.9,14.39,11111222 
DISL,ioos:station:DISL:MHPA:1,2019-03-17T19:00:00Z,30.6671,-87.9365,-0.9,14.69,11111222 
DISL,ioos:station:DISL:MHPA:1,2019-03-17T20:00:00Z,30.6671,-87.9365,-0.9,14.55,11111222 
DISL,ioos:station:DISL:MHPA:1,2019-03-17T21:00:00Z,30.6671,-87.9365,-0.9,14.92,11111222 
DISL,ioos:station:DISL:MHPA:1,2019-03-17T22:00:00Z,30.6671,-87.9365,-0.9,14.82,11111222 
DISL,ioos:station:DISL:MHPA:1,2019-03-17T23:00:00Z,30.6671,-87.9365,-0.9,14.94,11111222 
DISL,ioos:station:DISL:MHPA:1,2019-03-18T00:00:00Z,30.6671,-87.9365,-0.9,14.95,11111222 
DISL,ioos:station:DISL:MHPA:1,2019-03-18T01:00:00Z,30.6671,-87.9365,-0.9,14.95,11111222 
DISL,ioos:station:DISL:MHPA:1,2019-03-18T02:00:00Z,30.6671,-87.9365,-0.9,14.87,11111222 
DISL,ioos:station:DISL:MHPA:1,2019-03-18T03:00:00Z,30.6671,-87.9365,-0.9,14.79,11111222 
DISL,ioos:station:DISL:MHPA:1,2019-03-18T04:00:00Z,30.6671,-87.9365,-0.9,14.73,11111222 
DISL,ioos:station:DISL:MHPA:1,2019-03-18T05:00:00Z,30.6671,-87.9365,-0.9,14.7,11111222 
DISL,ioos:station:DISL:MHPA:1,2019-03-18T06:00:00Z,30.6671,-87.9365,-0.9,14.63,11111222 
DISL,ioos:station:DISL:MHPA:1,2019-03-18T07:00:00Z,30.6671,-87.9365,-0.9,14.57,11111222 
DISL,ioos:station:DISL:MHPA:1,2019-03-18T08:00:00Z,30.6671,-87.9365,-0.9,14.49,11111222 
DISL,ioos:station:DISL:MHPA:1,2019-03-18T09:00:00Z,30.6671,-87.9365,-0.9,14.37,11111222 
DISL,ioos:station:DISL:MHPA:1,2019-03-18T10:00:00Z,30.6671,-87.9365,-0.9,14.22,11111222 
DISL,ioos:station:DISL:MHPA:1,2019-03-18T11:00:00Z,30.6671,-87.9365,-0.9,14.15,11111222 
DISL,ioos:station:DISL:MHPA:1,2019-03-18T12:00:00Z,30.6671,-87.9365,-0.9,14.04,11111222 
DISL,ioos:station:DISL:MHPA:1,2019-03-18T13:00:00Z,30.6671,-87.9365,-0.9,13.89,11111222 
DISL,ioos:station:DISL:MHPA:1,2019-03-18T14:00:00Z,30.6671,-87.9365,-0.9,13.88,11111222 
DISL,ioos:station:DISL:MHPA:1,2019-03-18T15:00:00Z,30.6671,-87.9365,-0.9,13.87,11111222 
DISL,ioos:station:DISL:MHPA:1,2019-03-18T16:00:00Z,30.6671,-87.9365,-0.9,13.99,11111222 
DISL,ioos:station:DISL:MHPA:1,2019-03-18T17:00:00Z,30.6671,-87.9365,-0.9,14.02,11111222 
DISL,ioos:station:DISL:MHPA:1,2019-03-18T18:00:00Z,30.6671,-87.9365,-0.9,14.18,11111222 
DISL,ioos:station:DISL:MHPA:1,2019-03-18T19:00:00Z,30.6671,-87.9365,-0.9,14.2,11111222 
DISL,ioos:station:DISL:MHPA:1,2019-03-18T20:00:00Z,30.6671,-87.9365,-0.9,14.32,11111222 
DISL,ioos:station:DISL:MHPA:1,2019-03-18T21:00:00Z,30.6671,-87.9365,-0.9,14.57,11111222 
DISL,ioos:station:DISL:MHPA:1,2019-03-18T22:00:00Z,30.6671,-87.9365,-0.9,14.72,11111222 
DISL,ioos:station:DISL:MHPA:1,2019-03-18T23:00:00Z,30.6671,-87.9365,-0.9,14.71,11111222 
DISL,ioos:station:DISL:MHPA:1,2019-03-19T00:00:00Z,30.6671,-87.9365,-0.9,14.71,11111222 
DISL,ioos:station:DISL:MHPA:1,2019-03-19T01:00:00Z,30.6671,-87.9365,-0.9,14.66,11111222 
DISL,ioos:station:DISL:MHPA:1,2019-03-19T02:00:00Z,30.6671,-87.9365,-0.9,14.62,11111222 
DISL,ioos:station:DISL:MHPA:1,2019-03-19T03:00:00Z,30.6671,-87.9365,-0.9,14.51,11111222 
DISL,ioos:station:DISL:MHPA:1,2019-03-19T04:00:00Z,30.6671,-87.9365,-0.9,14.49,11111222 
DISL,ioos:station:DISL:MHPA:1,2019-03-19T05:00:00Z,30.6671,-87.9365,-0.9,14.42,11111222 
DISL,ioos:station:DISL:MHPA:1,2019-03-19T06:00:00Z,30.6671,-87.9365,-0.9,14.37,11111222 
DISL,ioos:station:DISL:MHPA:1,2019-03-19T07:00:00Z,30.6671,-87.9365,-0.9,14.32,11111222 
DISL,ioos:station:DISL:MHPA:1,2019-03-19T08:00:00Z,30.6671,-87.9365,-0.9,14.23,11111222 
DISL,ioos:station:DISL:MHPA:1,2019-03-19T09:00:00Z,30.6671,-87.9365,-0.9,14.08,11111222 
DISL,ioos:station:DISL:MHPA:1,2019-03-19T10:00:00Z,30.6671,-87.9365,-0.9,13.97,11111222 
DISL,ioos:station:DISL:MHPA:1,2019-03-19T11:00:00Z,30.6671,-87.9365,-0.9,13.91,11111222 
DISL,ioos:station:DISL:MHPA:1,2019-03-19T12:00:00Z,30.6671,-87.9365,-0.9,13.79,11111222 
DISL,ioos:station:DISL:MHPA:1,2019-03-19T13:00:00Z,30.6671,-87.9365,-0.9,13.65,11111222 
DISL,ioos:station:DISL:MHPA:1,2019-03-19T14:00:00Z,30.6671,-87.9365,-0.9,13.58,11111222 
DISL,ioos:station:DISL:MHPA:1,2019-03-19T15:00:00Z,30.6671,-87.9365,-0.9,13.76,11111222 
DISL,ioos:station:DISL:MHPA:1,2019-03-19T16:00:00Z,30.6671,-87.9365,-0.9,13.74,11111222 
DISL,ioos:station:DISL:MHPA:1,2019-03-19T17:00:00Z,30.6671,-87.9365,-0.9,13.94,11111222 
DISL,ioos:station:DISL:MHPA:1,2019-03-19T18:00:00Z,30.6671,-87.9365,-0.9,14.18,11111222 
DISL,ioos:station:DISL:MHPA:1,2019-03-19T19:00:00Z,30.6671,-87.9365,-0.9,14.32,11111222 
DISL,ioos:station:DISL:MHPA:1,2019-03-19T20:00:00Z,30.6671,-87.9365,-0.9,14.85,11111222 
DISL,ioos:station:DISL:MHPA:1,2019-03-19T21:00:00Z,30.6671,-87.9365,-0.9,15.13,11111222 
DISL,ioos:station:DISL:MHPA:1,2019-03-19T22:00:00Z,30.6671,-87.9365,-0.9,15.25,11111222 
DISL,ioos:station:DISL:MHPA:1,2019-03-19T23:00:00Z,30.6671,-87.9365,-0.9,15.49,11111222 
DISL,ioos:station:DISL:MHPA:1,2019-03-20T00:00:00Z,30.6671,-87.9365,-0.9,15.37,11111222 
DISL,ioos:station:DISL:MHPA:1,2019-03-20T01:00:00Z,30.6671,-87.9365,-0.9,15.29,11111222 
DISL,ioos:station:DISL:MHPA:1,2019-03-20T02:00:00Z,30.6671,-87.9365,-0.9,15.13,11111222 
DISL,ioos:station:DISL:MHPA:1,2019-03-20T03:00:00Z,30.6671,-87.9365,-0.9,14.91,11111222 
DISL,ioos:station:DISL:MHPA:1,2019-03-20T04:00:00Z,30.6671,-87.9365,-0.9,14.93,11111222 
DISL,ioos:station:DISL:MHPA:1,2019-03-20T05:00:00Z,30.6671,-87.9365,-0.9,14.74,11111222 
DISL,ioos:station:DISL:MHPA:1,2019-03-20T06:00:00Z,30.6671,-87.9365,-0.9,14.58,11111222 
DISL,ioos:station:DISL:MHPA:1,2019-03-20T07:00:00Z,30.6671,-87.9365,-0.9,14.5,11111222 
DISL,ioos:station:DISL:MHPA:1,2019-03-20T08:00:00Z,30.6671,-87.9365,-0.9,14.42,11111222 
DISL,ioos:station:DISL:MHPA:1,2019-03-20T09:00:00Z,30.6671,-87.9365,-0.9,14.29,11111222 
DISL,ioos:station:DISL:MHPA:1,2019-03-20T10:00:00Z,30.6671,-87.9365,-0.9,14.18,11111222 
DISL,ioos:station:DISL:MHPA:1,2019-03-20T11:00:00Z,30.6671,-87.9365,-0.9,14.07,11111222 
DISL,ioos:station:DISL:MHPA:1,2019-03-20T12:00:00Z,30.6671,-87.9365,-0.9,13.96,11111222 
DISL,ioos:station:DISL:MHPA:1,2019-03-20T13:00:00Z,30.6671,-87.9365,-0.9,13.87,11111222 
DISL,ioos:station:DISL:MHPA:1,2019-03-20T14:00:00Z,30.6671,-87.9365,-0.9,13.8,11111222 
DISL,ioos:station:DISL:MHPA:1,2019-03-20T15:00:00Z,30.6671,-87.9365,-0.9,13.89,11111222 
DISL,ioos:station:DISL:MHPA:1,2019-03-20T16:00:00Z,30.6671,-87.9365,-0.9,14.85,11111222 
DISL,ioos:station:DISL:MHPA:1,2019-03-20T17:00:00Z,30.6671,-87.9365,-0.9,15.19,11111222 
DISL,ioos:station:DISL:MHPA:1,2019-03-20T18:00:00Z,30.6671,-87.9365,-0.9,15.8,11111222 
DISL,ioos:station:DISL:MHPA:1,2019-03-20T19:00:00Z,30.6671,-87.9365,-0.9,15.52,11111222 
DISL,ioos:station:DISL:MHPA:1,2019-03-20T20:00:00Z,30.6671,-87.9365,-0.9,16.13,11111222 
DISL,ioos:station:DISL:MHPA:1,2019-03-20T21:00:00Z,30.6671,-87.9365,-0.9,16.59,11111222 
DISL,ioos:station:DISL:MHPA:1,2019-03-20T22:00:00Z,30.6671,-87.9365,-0.9,16.78,11111222 
DISL,ioos:station:DISL:MHPA:1,2019-03-20T23:00:00Z,30.6671,-87.9365,-0.9,16.92,11111222 
DISL,ioos:station:DISL:MHPA:1,2019-03-21T00:00:00Z,30.6671,-87.9365,-0.9,16.67,11111222 
DISL,ioos:station:DISL:MHPA:1,2019-03-21T01:00:00Z,30.6671,-87.9365,-0.9,16.3,11111222 
DISL,ioos:station:DISL:MHPA:1,2019-03-21T02:00:00Z,30.6671,-87.9365,-0.9,16.39,11111222 
DISL,ioos:station:DISL:MHPA:1,2019-03-21T03:00:00Z,30.6671,-87.9365,-0.9,15.8,11111222 
DISL,ioos:station:DISL:MHPA:1,2019-03-21T04:00:00Z,30.6671,-87.9365,-0.9,15.47,11111222 
DISL,ioos:station:DISL:MHPA:1,2019-03-21T05:00:00Z,30.6671,-87.9365,-0.9,15.41,11111222 
DISL,ioos:station:DISL:MHPA:1,2019-03-21T06:00:00Z,30.6671,-87.9365,-0.9,15.44,11111222 
DISL,ioos:station:DISL:MHPA:1,2019-03-21T07:00:00Z,30.6671,-87.9365,-0.9,15.03,11111222 
DISL,ioos:station:DISL:MHPA:1,2019-03-21T08:00:00Z,30.6671,-87.9365,-0.9,15.37,11111222 
DISL,ioos:station:DISL:MHPA:1,2019-03-21T09:00:00Z,30.6671,-87.9365,-0.9,15.21,11111222 
DISL,ioos:station:DISL:MHPA:1,2019-03-21T10:00:00Z,30.6671,-87.9365,-0.9,15.1,11111222 
DISL,ioos:station:DISL:MHPA:1,2019-03-21T11:00:00Z,30.6671,-87.9365,-0.9,14.87,11111222 
DISL,ioos:station:DISL:MHPA:1,2019-03-21T12:00:00Z,30.6671,-87.9365,-0.9,14.76,11111222 
DISL,ioos:station:DISL:MHPA:1,2019-03-21T13:00:00Z,30.6671,-87.9365,-0.9,14.65,11111222 
DISL,ioos:station:DISL:MHPA:1,2019-03-21T14:00:00Z,30.6671,-87.9365,-0.9,14.6,11111222 
DISL,ioos:station:DISL:MHPA:1,2019-03-21T15:00:00Z,30.6671,-87.9365,-0.9,14.59,11111222 
DISL,ioos:station:DISL:MHPA:1,2019-03-21T16:00:00Z,30.6671,-87.9365,-0.9,14.61,11111222 
DISL,ioos:station:DISL:MHPA:1,2019-03-21T17:00:00Z,30.6671,-87.9365,-0.9,14.8,11111222 
DISL,ioos:station:DISL:MHPA:1,2019-03-21T18:00:00Z,30.6671,-87.9365,-0.9,15.13,11111222 
DISL,ioos:station:DISL:MHPA:1,2019-03-21T19:00:00Z,30.6671,-87.9365,-0.9,15.33,11111222 
DISL,ioos:station:DISL:MHPA:1,2019-03-21T20:00:00Z,30.6671,-87.9365,-0.9,15.74,11111222 
DISL,ioos:station:DISL:MHPA:1,2019-03-21T21:00:00Z,30.6671,-87.9365,-0.9,16.13,11111222 
DISL,ioos:station:DISL:MHPA:1,2019-03-21T22:00:00Z,30.6671,-87.9365,-0.9,16.57,11111222 
DISL,ioos:station:DISL:MHPA:1,2019-03-21T23:00:00Z,30.6671,-87.9365,-0.9,16.59,11111222 
DISL,ioos:station:DISL:MHPA:1,2019-03-22T00:00:00Z,30.6671,-87.9365,-0.9,16.59,11111222 
DISL,ioos:station:DISL:MHPA:1,2019-03-22T01:00:00Z,30.6671,-87.9365,-0.9,16.49,11111222 
DISL,ioos:station:DISL:MHPA:1,2019-03-22T02:00:00Z,30.6671,-87.9365,-0.9,16.17,11111222 
DISL,ioos:station:DISL:MHPA:1,2019-03-22T03:00:00Z,30.6671,-87.9365,-0.9,16.18,11111222 
DISL,ioos:station:DISL:MHPA:1,2019-03-22T04:00:00Z,30.6671,-87.9365,-0.9,16.08,11111222 
DISL,ioos:station:DISL:MHPA:1,2019-03-22T05:00:00Z,30.6671,-87.9365,-0.9,15.94,11111222 
DISL,ioos:station:DISL:MHPA:1,2019-03-22T06:00:00Z,30.6671,-87.9365,-0.9,15.76,11111222 
DISL,ioos:station:DISL:MHPA:1,2019-03-22T07:00:00Z,30.6671,-87.9365,-0.9,15.6,11111222 
DISL,ioos:station:DISL:MHPA:1,2019-03-22T08:00:00Z,30.6671,-87.9365,-0.9,15.55,11111222 
DISL,ioos:station:DISL:MHPA:1,2019-03-22T09:00:00Z,30.6671,-87.9365,-0.9,15.42,11111222 
DISL,ioos:station:DISL:MHPA:1,2019-03-22T10:00:00Z,30.6671,-87.9365,-0.9,15.28,11111222 
DISL,ioos:station:DISL:MHPA:1,2019-03-22T11:00:00Z,30.6671,-87.9365,-0.9,15.21,11111222 
DISL,ioos:station:DISL:MHPA:1,2019-03-22T12:00:00Z,30.6671,-87.9365,-0.9,15.08,11111222 
DISL,ioos:station:DISL:MHPA:1,2019-03-22T13:00:00Z,30.6671,-87.9365,-0.9,15.01,11111222 
DISL,ioos:station:DISL:MHPA:1,2019-03-22T14:00:00Z,30.6671,-87.9365,-0.9,14.99,11111222 
DISL,ioos:station:DISL:MHPA:1,2019-03-22T15:00:00Z,30.6671,-87.9365,-0.9,14.96,11111222 
DISL,ioos:station:DISL:MHPA:1,2019-03-22T16:00:00Z,30.6671,-87.9365,-0.9,14.99,11111222 
DISL,ioos:station:DISL:MHPA:1,2019-03-22T17:00:00Z,30.6671,-87.9365,-0.9,15.26,11111222 
DISL,ioos:station:DISL:MHPA:1,2019-03-22T18:00:00Z,30.6671,-87.9365,-0.9,15.4,11111222 
DISL,ioos:station:DISL:MHPA:1,2019-03-22T19:00:00Z,30.6671,-87.9365,-0.9,15.58,11111222 
DISL,ioos:station:DISL:MHPA:1,2019-03-22T20:00:00Z,30.6671,-87.9365,-0.9,16.08,11111222 
DISL,ioos:station:DISL:MHPA:1,2019-03-22T21:00:00Z,30.6671,-87.9365,-0.9,16.24,11111222 
DISL,ioos:station:DISL:MHPA:1,2019-03-22T22:00:00Z,30.6671,-87.9365,-0.9,16.44,11111222 
DISL,ioos:station:DISL:MHPA:1,2019-03-22T23:00:00Z,30.6671,-87.9365,-0.9,17.3,11111222 
DISL,ioos:station:DISL:MHPA:1,2019-03-23T00:00:00Z,30.6671,-87.9365,-0.9,17.24,11111222 
DISL,ioos:station:DISL:MHPA:1,2019-03-23T01:00:00Z,30.6671,-87.9365,-0.9,17.16,11111222 
DISL,ioos:station:DISL:MHPA:1,2019-03-23T02:00:00Z,30.6671,-87.9365,-0.9,17.15,11111222 
DISL,ioos:station:DISL:MHPA:1,2019-03-23T03:00:00Z,30.6671,-87.9365,-0.9,16.28,11111222 
DISL,ioos:station:DISL:MHPA:1,2019-03-23T04:00:00Z,30.6671,-87.9365,-0.9,16.28,11111222 
DISL,ioos:station:DISL:MHPA:1,2019-03-23T05:00:00Z,30.6671,-87.9365,-0.9,16.54,11111222 
DISL,ioos:station:DISL:MHPA:1,2019-03-23T06:00:00Z,30.6671,-87.9365,-0.9,16.32,11111222 
DISL,ioos:station:DISL:MHPA:1,2019-03-23T07:00:00Z,30.6671,-87.9365,-0.9,16.13,11111222 
DISL,ioos:station:DISL:MHPA:1,2019-03-23T08:00:00Z,30.6671,-87.9365,-0.9,15.82,11111222 
DISL,ioos:station:DISL:MHPA:1,2019-03-23T09:00:00Z,30.6671,-87.9365,-0.9,15.81,11111222 
DISL,ioos:station:DISL:MHPA:1,2019-03-23T10:00:00Z,30.6671,-87.9365,-0.9,15.68,11111222 
DISL,ioos:station:DISL:MHPA:1,2019-03-23T11:00:00Z,30.6671,-87.9365,-0.9,15.54,11111222 
DISL,ioos:station:DISL:MHPA:1,2019-03-23T12:00:00Z,30.6671,-87.9365,-0.9,15.46,11111222 
DISL,ioos:station:DISL:MHPA:1,2019-03-23T13:00:00Z,30.6671,-87.9365,-0.9,15.41,11111222 
DISL,ioos:station:DISL:MHPA:1,2019-03-23T14:00:00Z,30.6671,-87.9365,-0.9,15.44,11111222 
DISL,ioos:station:DISL:MHPA:1,2019-03-23T15:00:00Z,30.6671,-87.9365,-0.9,15.29,11111222 
DISL,ioos:station:DISL:MHPA:1,2019-03-23T16:00:00Z,30.6671,-87.9365,-0.9,15.28,11111222 
DISL,ioos:station:DISL:MHPA:1,2019-03-23T17:00:00Z,30.6671,-87.9365,-0.9,15.41,11111222 
DISL,ioos:station:DISL:MHPA:1,2019-03-23T18:00:00Z,30.6671,-87.9365,-0.9,16.97,11111222 
DISL,ioos:station:DISL:MHPA:1,2019-03-23T19:00:00Z,30.6671,-87.9365,-0.9,17.31,11111222 
DISL,ioos:station:DISL:MHPA:1,2019-03-23T20:00:00Z,30.6671,-87.9365,-0.9,17.79,11111222 
DISL,ioos:station:DISL:MHPA:1,2019-03-23T21:00:00Z,30.6671,-87.9365,-0.9,18.33,11111222 
DISL,ioos:station:DISL:MHPA:1,2019-03-23T22:00:00Z,30.6671,-87.9365,-0.9,18.1,11111222 
DISL,ioos:station:DISL:MHPA:1,2019-03-23T23:00:00Z,30.6671,-87.9365,-0.9,17.97,11111222 
DISL,ioos:station:DISL:MHPA:1,2019-03-24T00:00:00Z,30.6671,-87.9365,-0.9,17.93,11111222 
DISL,ioos:station:DISL:MHPA:1,2019-03-24T01:00:00Z,30.6671,-87.9365,-0.9,17.39,11111222 
DISL,ioos:station:DISL:MHPA:1,2019-03-24T02:00:00Z,30.6671,-87.9365,-0.9,17.36,11111222 
DISL,ioos:station:DISL:MHPA:1,2019-03-24T03:00:00Z,30.6671,-87.9365,-0.9,16.7,11111222 
DISL,ioos:station:DISL:MHPA:1,2019-03-24T04:00:00Z,30.6671,-87.9365,-0.9,16.75,11111222 
DISL,ioos:station:DISL:MHPA:1,2019-03-24T05:00:00Z,30.6671,-87.9365,-0.9,16.62,11111222 
DISL,ioos:station:DISL:MHPA:1,2019-03-24T06:00:00Z,30.6671,-87.9365,-0.9,16.5,11111222 
DISL,ioos:station:DISL:MHPA:1,2019-03-24T07:00:00Z,30.6671,-87.9365,-0.9,16.41,11111222 
DISL,ioos:station:DISL:MHPA:1,2019-03-24T08:00:00Z,30.6671,-87.9365,-0.9,16.31,11111222 
DISL,ioos:station:DISL:MHPA:1,2019-03-24T09:00:00Z,30.6671,-87.9365,-0.9,16.2,11111222 
DISL,ioos:station:DISL:MHPA:1,2019-03-24T10:00:00Z,30.6671,-87.9365,-0.9,16.06,11111222 
DISL,ioos:station:DISL:MHPA:1,2019-03-24T11:00:00Z,30.6671,-87.9365,-0.9,15.89,11111222 
DISL,ioos:station:DISL:MHPA:1,2019-03-24T12:00:00Z,30.6671,-87.9365,-0.9,15.81,11111222 
DISL,ioos:station:DISL:MHPA:1,2019-03-24T13:00:00Z,30.6671,-87.9365,-0.9,15.75,11111222 
DISL,ioos:station:DISL:MHPA:1,2019-03-24T14:00:00Z,30.6671,-87.9365,-0.9,15.8,11111222 
DISL,ioos:station:DISL:MHPA:1,2019-03-24T15:00:00Z,30.6671,-87.9365,-0.9,15.67,11111222 
DISL,ioos:station:DISL:MHPA:1,2019-03-24T16:00:00Z,30.6671,-87.9365,-0.9,15.72,11111222 
DISL,ioos:station:DISL:MHPA:1,2019-03-24T17:00:00Z,30.6671,-87.9365,-0.9,15.86,11111222 
DISL,ioos:station:DISL:MHPA:1,2019-03-24T18:00:00Z,30.6671,-87.9365,-0.9,17.67,11111222 
DISL,ioos:station:DISL:MHPA:1,2019-03-24T19:00:00Z,30.6671,-87.9365,-0.9,17.96,11111222 
DISL,ioos:station:DISL:MHPA:1,2019-03-24T20:00:00Z,30.6671,-87.9365,-0.9,18.45,11111222 
DISL,ioos:station:DISL:MHPA:1,2019-03-24T21:00:00Z,30.6671,-87.9365,-0.9,18.48,11111222 
DISL,ioos:station:DISL:MHPA:1,2019-03-24T22:00:00Z,30.6671,-87.9365,-0.9,18.73,11111222 
DISL,ioos:station:DISL:MHPA:1,2019-03-24T23:00:00Z,30.6671,-87.9365,-0.9,18.68,11111222 
DISL,ioos:station:DISL:MHPA:1,2019-03-25T00:00:00Z,30.6671,-87.9365,-0.9,18.58,11111222 
DISL,ioos:station:DISL:MHPA:1,2019-03-25T01:00:00Z,30.6671,-87.9365,-0.9,18.3,11111222 
DISL,ioos:station:DISL:MHPA:1,2019-03-25T02:00:00Z,30.6671,-87.9365,-0.9,18.13,11111222 
DISL,ioos:station:DISL:MHPA:1,2019-03-25T03:00:00Z,30.6671,-87.9365,-0.9,17.35,11111222 
DISL,ioos:station:DISL:MHPA:1,2019-03-25T04:00:00Z,30.6671,-87.9365,-0.9,17.42,11111222 
DISL,ioos:station:DISL:MHPA:1,2019-03-25T05:00:00Z,30.6671,-87.9365,-0.9,17.01,11111222 
DISL,ioos:station:DISL:MHPA:1,2019-03-25T06:00:00Z,30.6671,-87.9365,-0.9,16.77,11111222 
DISL,ioos:station:DISL:MHPA:1,2019-03-25T07:00:00Z,30.6671,-87.9365,-0.9,16.67,11111222 
DISL,ioos:station:DISL:MHPA:1,2019-03-25T08:00:00Z,30.6671,-87.9365,-0.9,16.37,11111222 
DISL,ioos:station:DISL:MHPA:1,2019-03-25T09:00:00Z,30.6671,-87.9365,-0.9,16.31,11111222 
DISL,ioos:station:DISL:MHPA:1,2019-03-25T10:00:00Z,30.6671,-87.9365,-0.9,16.28,11111222 
DISL,ioos:station:DISL:MHPA:1,2019-03-25T11:00:00Z,30.6671,-87.9365,-0.9,16.26,11111222 
DISL,ioos:station:DISL:MHPA:1,2019-03-25T12:00:00Z,30.6671,-87.9365,-0.9,16.2,11111222 
DISL,ioos:station:DISL:MHPA:1,2019-03-25T13:00:00Z,30.6671,-87.9365,-0.9,16.18,11111222 
DISL,ioos:station:DISL:MHPA:1,2019-03-25T14:00:00Z,30.6671,-87.9365,-0.9,16.19,11111222 
DISL,ioos:station:DISL:MHPA:1,2019-03-25T15:00:00Z,30.6671,-87.9365,-0.9,16.15,11111222 
DISL,ioos:station:DISL:MHPA:1,2019-03-25T16:00:00Z,30.6671,-87.9365,-0.9,16.28,11111222 
DISL,ioos:station:DISL:MHPA:1,2019-03-25T17:00:00Z,30.6671,-87.9365,-0.9,16.28,11111222 
DISL,ioos:station:DISL:MHPA:1,2019-03-25T18:00:00Z,30.6671,-87.9365,-0.9,16.28,11111222 
DISL,ioos:station:DISL:MHPA:1,2019-03-25T19:00:00Z,30.6671,-87.9365,-0.9,17.81,11111222 
DISL,ioos:station:DISL:MHPA:1,2019-03-25T20:00:00Z,30.6671,-87.9365,-0.9,18.04,11111222 
DISL,ioos:station:DISL:MHPA:1,2019-03-25T21:00:00Z,30.6671,-87.9365,-0.9,18.72,11111222 
DISL,ioos:station:DISL:MHPA:1,2019-03-25T22:00:00Z,30.6671,-87.9365,-0.9,19.28,11111222 
DISL,ioos:station:DISL:MHPA:1,2019-03-25T23:00:00Z,30.6671,-87.9365,-0.9,19.2,11111222 
DISL,ioos:station:DISL:MHPA:1,2019-03-26T00:00:00Z,30.6671,-87.9365,-0.9,18.67,11111222 